www.pogodaiklimat.ru

Погода и климат >> Архив погоды >> Кувейт >> Sabriyah


ПОГОДА в Sabriyah

  • Прогноз погоды в Sabriyah
  • Монитор погоды в Sabriyah
  • Климат города

АРХИВ ПОГОДЫ в Sabriyah

Время (UTC), дата Ветер
(напр.,м/с)
 
Видим.   Явления Облачность Т
(С)
Тd
(С)
f
(%)
Тe
(С)
Тes
(С)
Комфортность P
(гПа)
Po
(гПа)
Тmin
(С)
Tmax
(С)
R
(мм)
R24
(мм)
S
(см)
03 11.10 ЮЗ 3-4
{9}
9000 м дымка н/о +25.7 +7.4 31 +26 +26 жарко 1010.8 1011.0
06 11.10 ЮЗ 4-5
{9}
7000 м дымка н/о +33.6 +6.7 19 +32 +32 жарко 1011.5 1012.0
09 11.10 ЮЗ 3-6
{8}
11 км дым н/о +41.6 +2.9 9 +38 +38 очень
жарко
1009.8 1010.0
12 11.10 Ю 2-6
{8}
17 км н/о +41.9 +1.7 8 +38 +38 очень
жарко
1008.3 1008.0
15 11.10 Ю 6-7
{8}
13 км дымка н/о +34.5 +14.3 30 +36 +36 душно 1008.9 1009.0
18 11.10 Ю 2-4
{8}
7000 м дымка н/о +30.2 +25.5 76 +44 +44 опасность
перегрева
1009.9 1010.0
21 11.10 ЮЗ 4 9000 м дымка н/о +27.8 +27.6 99 +34 +34 очень
душно
1009.8 1010.0 +25.2 +43.2
00 12.10 Ю 5-7
{11}
5000 м дымка н/о +28.0 +23.7 77 +38 +38 очень
душно
1009.8 1010.0
03 12.10 ЮЗ 3-5
{7}
9000 м дымка н/о +27.2 +16.8 53 +31 +31 душно 1010.7 1011.0
06 12.10 З 4-4
{7}
10 км н/о +33.0 +11.2 26 +33 +33 жарко 1011.6 1012.0
09 12.10 Ю 3-6
{6}
13 км дым н/о +41.4 +3.9 10 +38 +38 очень
жарко
1010.2 1010.0
12 12.10 ЮВ 6-8
{9}
15 км н/о +39.5 +11.6 19 +39 +39 очень
жарко
1009.3 1009.0
15 12.10 ЮВ 7-8
{10}
6000 м дымка н/о +31.3 +23.6 64 +42 +42 опасность
перегрева
1010.0 1010.0
18 12.10 Ю 3-6
{10}
4500 м дымка н/о +28.9 +25.6 82 +43 +43 опасность
перегрева
1011.0 1011.0
21 12.10 ЮЗ 2 2000 м дымка н/о +26.2 +26.1 99 +39 +39 очень
душно
1011.6 1012.0 +25.4 +41.5
00 13.10 ЮЗ 4-6
{6}
3600 м дымка н/о +24.6 +21.2 81 +31 +31 очень
душно
1011.4 1011.0
03 13.10 ЮЗ 3-3
{5}
2700 м дымка н/о +23.3 +21.0 87 +31 +31 очень
душно
1012.3 1012.0
06 13.10 СВ 3-4
{10}
10 км н/о +31.4 +12.5 31 +32 +32 жарко 1014.3 1014.0
09 13.10 В 3-5
{6}
11 км н/о +36.1 +11.0 22 +35 +35 очень
жарко
1013.1 1013.0
12 13.10 ЮВ 5-8
{8}
8000 м дымка н/о +36.2 +19.1 37 +41 +41 опасность
перегрева
1011.5 1012.0
15 13.10 Ю 3-5
{8}
5000 м дымка н/о +31.1 +25.0 70 +45 +45 опасность
перегрева
1012.1 1012.0
18 13.10 Ю 3-5
{8}
3100 м дымка н/о +28.5 +25.9 86 +43 +43 опасность
перегрева
1013.3 1013.0
21 13.10 ЮЗ 4 1600 м дымка н/о +26.2 +26.2 100 +39 +39 очень
душно
1013.3 1013.0 +23.1 +37.9
00 14.10 ЮЗ 4-5
{5}
1600 м дымка н/о +25.3 +25.3 100 +36 +36 очень
душно
1013.1 1013.0
03 14.10 ЮЗ 4-6
{6}
900 м туман {дымка} н/о +25.0 +24.7 98 1014.3 1014.3
06 14.10 ЮЗ 5-7
{8}
7000 м дымка {туман} н/о +31.5 +21.9 57 +40 +40 очень
душно
1014.9 1015.0
09 14.10 Ю 2-4
{7}
12 км н/о +37.9 +14.4 25 +39 +39 очень
душно
1013.0 1013.0
12 14.10 ЮВ 3-5
{7}
16 км н/о +37.8 +10.1 19 +37 +37 очень
жарко
1011.2 1011.0
15 14.10 ЮВ 7-8
{8}
7000 м дымка н/о +32.1 +22.9 58 +42 +42 опасность
перегрева
1011.5 1012.0
18 14.10 Ю 2-4
{8}
6000 м дымка н/о +29.2 +25.3 80 +43 +43 опасность
перегрева
1012.7 1013.0
21 14.10 ЮВ 5 4700 м дымка н/о +28.1 +25.5 86 +41 +41 опасность
перегрева
1013.1 1013.0 +24.5 +38.9
00 15.10 ЮВ 4-5
{9}
5000 м дымка н/о +27.2 +23.9 82 +37 +37 очень
душно
1012.6 1013.0
03 15.10 ЮЗ 2-2
{6}
3100 м дымка н/о +25.9 +23.8 88 +35 +35 очень
душно
1013.9 1014.0
06 15.10 В 11-13
{21}
12 км в посл. час туман {дымка} н/о +28.1 +14.1 42 +30 +30 жарко 1016.5 1017.0
09 15.10 В 10-12
{16}
3700 м дымка {туман} н/о +33.5 +10.6 25 +33 +33 жарко 1014.3 1014.0
12 15.10 ЮВ 4-7
{16}
8000 м дымка {туман} н/о +34.2 +11.2 25 +34 +34 очень
жарко
1013.1 1013.0
15 15.10 ЮВ 4-5
{8}
2000 м дымка н/о +31.1 +15.0 38 +33 +33 душно 1014.1 1014.0
18 15.10 ЮВ 4-4
{8}
2600 м дымка н/о +27.4 +17.1 53 +31 +31 душно 1014.3 1014.0
21 15.10 ЮВ 3 2900 м дымка н/о +25.5 +19.0 67 +30 +30 душно 1013.7 1014.0 +25.4 +35.1
00 16.10 З 2-2
{5}
2600 м дымка н/о +23.5 +17.7 70 +28 +28 душно 1013.4 1013.0
03 16.10 З 1-1
{6}
4000 м дымка н/о +24.1 +16.0 61 +27 +27 жарко 1014.7 1015.0
06 16.10 СЗ 3-4
{6}
3700 м дымка н/о +30.4 +14.3 38 +32 +32 жарко 1015.8 1016.0
09 16.10 СВ 2-5
{5}
8000 м дымка н/о +35.8 +9.8 21 +35 +35 очень
жарко
1013.6 1014.0
12 16.10 СЗ 2-3
{6}
11 км н/о +36.8 +7.9 17 +35 +35 очень
жарко
1012.2 1012.0
15 16.10 Ю 2-3
{5}
6000 м дымка н/о +32.4 +15.5 36 +35 +35 душно 1012.4 1012.0
18 16.10 ЮВ 4-4
{5}
5000 м дымка н/о +28.7 +21.7 66 +37 +37 очень
душно
1013.2 1013.0
21 16.10 ЮЗ 3 4500 м дымка н/о +26.7 +21.5 73 +34 +34 очень
душно
1012.6 1013.0 +22.9 +38.4
00 17.10 ЮЗ 3-3
{4}
7000 м дымка н/о +24.9 +14.4 52 +27 +27 жарко 1012.2 1012.0
03 17.10 З 2-3
{3}
8000 м дымка н/о +24.1 +14.8 56 +27 +27 жарко 1013.0 1013.0
06 17.10 З 5-7
{7}
8000 м дымка н/о +31.5 +12.1 31 +32 +32 жарко 1014.1 1014.0
09 17.10 С 1-3
{8}
11 км н/о +37.1 +7.1 16 +35 +35 очень
жарко
1012.3 1012.0
12 17.10 СВ 2-3
{8}
10 км н/о +37.1 +5.5 14 +34 +34 очень
жарко
1010.4 1010.0
15 17.10 Ю 4-6
{6}
11 км н/о +32.8 +11.6 27 +33 +33 жарко 1010.8 1011.0
18 17.10 Ю 2-3
{6}
10 км н/о +29.1 +19.5 56 +35 +35 очень
душно
1011.7 1012.0
21 17.10 ЮЗ 3 8000 м дымка н/о +26.9 +17.0 55 +31 +31 душно 1011.6 1012.0 +23.6 +38.8

 

Местоположение метеостанции Sabriyah (Кувейт): широта 29.75 долгота 47.85 высота над уровнем моря 56 м.

В архиве по умолчанию представлена погода в Sabriyah за последнюю неделю. Архивные данные за месяц целиком и за предыдущие месяцы, начиная с января 2011 года, Вы можете получить, выбрав интересующий диапазон дат из раскрывающегося списка и нажав кнопку "Ввод!".


*Определитесь, кто Вы:
робот инопланетянин человек

Внимание! Время в таблицах - всемирное. Для получения местного времени необходимо прибавить поправку, которая в Sabriyah равна 3 ч.

Смотрите также архив погоды в соседних городах и на ближайших метеорологических станциях:

Погода в Jal Aliyah (Кувейт) (30 км)
Погода в Abdaly (Кувейт) (39 км)
Погода в Mitribah (Кувейт) (47 км)
Погода в Kuwait City (Кувейт) (51 км)
Погода в Al-Shuaiba (Кувейт) (51 км)
Погода в Jahra (Кувейт) (51 км)
Погода в Bubiyan (Кувейт) (51 км)
Погода в Experimental Farm (Кувейт) (52 км)
Погода в Failaka Island (Кувейт) (52 км)
Погода в Sulaibiya (Кувейт) (55 км)

Пояснения к столбцам:

Ветер - указаны скорость ветра в м/с - средняя за 10 мин, порывы в срок и между сроками (в фигурных скобках) и направление, откуда дует ветер: С - северный, СВ - северо-восточный, В - восточный, ЮВ - юго-восточный, Ю - южный, ЮЗ - юго-западный, З - западный, СЗ - северо-западный.
Видимость - горизонтальная дальность видимости в метрах или километрах. При видимости от 1 до 10 км при отсутствии осадков обычно наблюдается дымка, при ухудшении видимости до 1 км и менее - туман. В сухую погоду видимость может ухудшаться дымом, пылью или мглою.
Явления - указаны атмосферные явления, наблюдавшиеся в срок или в последний час перед сроком; фигурными скобками обозначены явления, наблюдавшиеся между сроками (за 1-3 часа до срока); квадратными скобками обозначены град или гололедные отложения с указанием их диаметра в мм.
Облачность - указаны через наклонную черту общая и нижняя облачность в баллах и высота нижней границы облаков в метрах; квадратными скобками обозначены формы облаков: Ci - перистые, Cs - перисто-слоистые, Cc - перисто-кучевые, Ac - высококучевые, As - высокослоистые, Sc - слоисто-кучевые, Ns - слоисто-дождевые, Cu - кучевые, Cb - кучево-дождевые. Подробнее классификацию облаков см. в Атласе облаков (PDF).
T - Температура воздуха - температура, измеренная на высоте 2 м над землей.
Td - Температура точки росы - температура, при понижении до которой содержащийся в воздухе водяной пар достигнет насыщения.
f - Относительная влажность воздуха - влажноcть воздуха, измеренная на высоте 2 м над землей.
Te - Эффективная температура - температура, которую ощущает одетый по сезону человек в тени. Характеристика душности погоды. При расчете учитывается влияние влажности воздуха и скорости ветра на теплоощущения человека.
Tes - Эффективная температура на солнце - температура, которую ощущает человек, с поправкой на солнечный нагрев. Характеристика знойности погоды. Зависит от высоты солнца над горизонтом, облачности и скорости ветра. Ночью, в пасмурную погоду, а также при ветре 12 м/с и более поправка равна нулю.
P - Атмосферное давление - приведенное к уровню моря атмосферное давление.
Po - Атмосферное давление - измеренное на уровне метеостанции атмосферное давление.
Tmin - Минимальная температура - минимум температуры воздуха на высоте 2 м над землей.
Tmax - Максимальная температура - максимум температуры воздуха на высоте 2 м над землей.
R - Количество осадков - Количество выпавших осадков за период времени, мм. При наведении курсора мыши на число - период времени, за который выпало указанное количество осадков.
R24 - Количество осадков - Количество выпавших осадков за 24 часа, мм.
S - Снежный покров - Высота снежного покрова, см. При наведении курсора мыши на число - состояние снежного покрова и степень покрытия местности в баллах.